AVA5325 SKCL-SKSM

Flight info

Callsign AVA5325
Flight time 1h 19m
Altitude 23000
Route ULQ1B ULQ W3 MGN/N0448F390 DCT DARNI DARNI1C
Aircraft A320/M-SDE3FGHIRWY/LB1

Departure

Time 2026-05-08 16:16
Airport Alfonso Bonilla Aragon International Airport (SKCL)

Arrival

Time 2026-05-08 17:35
Airport Simón Bolívar International Airport (SKSM)
Time Latitude Longitude Altitude Speed Heading
2026-05-08 15:51 3.53698 -76.38607 3163 ft 0 kts 246°
2026-05-08 16:09 3.53698 -76.38606 3163 ft 2 kts 246°
2026-05-08 16:09 3.53710 -76.38585 3163 ft 4 kts 230°
2026-05-08 16:09 3.53730 -76.38568 3163 ft 4 kts 202°
2026-05-08 16:10 3.53755 -76.38563 3163 ft 4 kts 171°
2026-05-08 16:10 3.53777 -76.38570 3163 ft 1 kts 145°
2026-05-08 16:13 3.53751 -76.38552 3164 ft 5 kts 144°
2026-05-08 16:13 3.53727 -76.38535 3163 ft 5 kts 144°
2026-05-08 16:13 3.53644 -76.38475 3163 ft 22 kts 146°
2026-05-08 16:13 3.53494 -76.38473 3161 ft 23 kts 189°
2026-05-08 16:14 3.53332 -76.38501 3161 ft 24 kts 190°
2026-05-08 16:14 3.53164 -76.38530 3162 ft 24 kts 190°
2026-05-08 16:14 3.53035 -76.38553 3162 ft 11 kts 189°
2026-05-08 16:14 3.52972 -76.38545 3161 ft 10 kts 147°
2026-05-08 16:15 3.52956 -76.38487 3160 ft 10 kts 81°
2026-05-08 16:15 3.53004 -76.38433 3159 ft 13 kts 39°
2026-05-08 16:15 3.53078 -76.38383 3157 ft 13 kts
2026-05-08 16:15 3.53172 -76.38366 3158 ft 17 kts 11°
2026-05-08 16:16 3.53519 -76.38307 3161 ft 95 kts
2026-05-08 16:16 3.54400 -76.38164 3167 ft 167 kts
2026-05-08 16:16 3.55684 -76.37916 3669 ft 198 kts 11°
2026-05-08 16:16 3.57027 -76.37662 4746 ft 193 kts
2026-05-08 16:17 3.58321 -76.37432 5277 ft 209 kts
2026-05-08 16:17 3.59833 -76.37170 5699 ft 234 kts
2026-05-08 16:17 3.61518 -76.36879 6095 ft 258 kts
2026-05-08 16:17 3.63357 -76.36562 6581 ft 277 kts
2026-05-08 16:18 3.65282 -76.36223 7299 ft 283 kts
2026-05-08 16:18 3.67235 -76.35875 8096 ft 287 kts 10°
2026-05-08 16:18 3.69224 -76.35520 8916 ft 291 kts 10°
2026-05-08 16:18 3.71198 -76.35008 9717 ft 295 kts 17°
2026-05-08 16:19 3.73194 -76.34417 10299 ft 308 kts 17°
2026-05-08 16:19 3.75328 -76.33785 10543 ft 331 kts 17°
2026-05-08 16:19 3.77570 -76.33120 11066 ft 341 kts 17°
2026-05-08 16:19 3.79859 -76.32435 11754 ft 345 kts 18°
2026-05-08 16:20 3.82149 -76.31689 12460 ft 348 kts 20°
2026-05-08 16:20 3.84454 -76.30894 13171 ft 352 kts 20°
2026-05-08 16:20 3.86777 -76.30077 13852 ft 355 kts 21°
2026-05-08 16:20 3.89121 -76.29250 14438 ft 359 kts 21°
2026-05-08 16:21 3.91484 -76.28423 15027 ft 362 kts 20°
2026-05-08 16:21 3.93882 -76.27592 15613 ft 366 kts 20°
2026-05-08 16:21 3.96302 -76.26758 16192 ft 369 kts 20°
2026-05-08 16:21 3.98748 -76.25919 16783 ft 373 kts 20°
2026-05-08 16:22 4.01216 -76.25076 17335 ft 377 kts 20°
2026-05-08 16:22 4.03704 -76.24225 17916 ft 380 kts 20°
2026-05-08 16:22 4.06220 -76.23361 18452 ft 384 kts 20°
2026-05-08 16:22 4.08748 -76.22466 18923 ft 386 kts 24°
2026-05-08 16:23 4.11143 -76.21253 19427 ft 388 kts 30°
2026-05-08 16:23 4.13503 -76.19916 19912 ft 391 kts 30°
2026-05-08 16:23 4.15860 -76.18582 20370 ft 394 kts 30°
2026-05-08 16:23 4.18251 -76.17230 20841 ft 397 kts 30°
2026-05-08 16:24 4.20667 -76.15860 21301 ft 400 kts 30°
2026-05-08 16:24 4.23125 -76.14465 21775 ft 402 kts 30°
2026-05-08 16:24 4.25539 -76.13094 22201 ft 406 kts 30°
2026-05-08 16:24 4.28010 -76.11696 22633 ft 409 kts 30°
2026-05-08 16:25 4.30488 -76.10302 22871 ft 411 kts 30°
2026-05-08 16:25 4.32169 -76.09361 22910 ft 404 kts 30°
2026-05-08 16:25 4.35377 -76.07566 22922 ft 396 kts 30°
2026-05-08 16:25 4.37771 -76.06224 22942 ft 394 kts 30°
2026-05-08 16:26 4.40164 -76.04881 22942 ft 394 kts 30°
2026-05-08 16:26 4.42557 -76.03536 22944 ft 394 kts 30°
2026-05-08 16:26 4.44948 -76.02193 22933 ft 394 kts 30°
2026-05-08 16:26 4.47343 -76.00850 22938 ft 394 kts 30°
2026-05-08 16:27 4.49731 -75.99514 22942 ft 394 kts 30°
2026-05-08 16:27 4.52134 -75.98168 22948 ft 394 kts 30°
2026-05-08 16:27 4.54501 -75.96841 22953 ft 394 kts 30°
2026-05-08 16:27 4.56804 -75.95548 22958 ft 394 kts 30°
2026-05-08 16:28 4.59196 -75.94208 22962 ft 394 kts 30°
2026-05-08 16:28 4.61563 -75.92890 22958 ft 394 kts 29°
2026-05-08 16:28 4.63955 -75.91559 22968 ft 394 kts 29°
2026-05-08 16:28 4.66348 -75.90225 22986 ft 394 kts 30°
2026-05-08 16:29 4.68771 -75.88869 22993 ft 394 kts 30°
2026-05-08 16:29 4.71166 -75.87526 23002 ft 394 kts 29°
2026-05-08 16:29 4.73525 -75.86202 23012 ft 394 kts 30°
2026-05-08 16:29 4.75946 -75.84847 23021 ft 394 kts 30°
2026-05-08 16:30 4.78220 -75.83639 23024 ft 394 kts 24°
2026-05-08 16:30 4.80788 -75.82688 23027 ft 394 kts 19°
2026-05-08 16:30 4.83379 -75.81792 23027 ft 394 kts 19°
2026-05-08 16:30 4.85934 -75.80905 23028 ft 394 kts 19°
2026-05-08 16:31 4.88559 -75.79989 23030 ft 394 kts 19°
2026-05-08 16:31 4.91145 -75.79084 23024 ft 394 kts 20°
2026-05-08 16:31 4.93735 -75.78175 22997 ft 394 kts 19°
2026-05-08 16:31 4.96269 -75.77290 23015 ft 394 kts 20°
2026-05-08 16:32 4.98902 -75.76374 23031 ft 394 kts 19°
2026-05-08 16:32 5.01499 -75.75469 23044 ft 394 kts 19°
2026-05-08 16:32 5.04083 -75.74566 23051 ft 394 kts 20°
2026-05-08 16:32 5.06675 -75.73659 23060 ft 394 kts 20°
2026-05-08 16:33 5.09270 -75.72752 23067 ft 394 kts 19°
2026-05-08 16:33 5.11854 -75.71848 23070 ft 394 kts 20°
2026-05-08 16:33 5.14422 -75.70953 23070 ft 395 kts 19°
2026-05-08 16:33 5.17021 -75.70049 23070 ft 395 kts 19°
2026-05-08 16:34 5.19644 -75.69134 23059 ft 395 kts 20°
2026-05-08 16:34 5.22236 -75.68227 23047 ft 395 kts 19°
2026-05-08 16:34 5.24792 -75.67335 23034 ft 395 kts 20°
2026-05-08 16:34 5.27404 -75.66425 23019 ft 395 kts 19°
2026-05-08 16:35 5.29990 -75.65522 22999 ft 395 kts 20°
2026-05-08 16:35 5.32592 -75.64614 22976 ft 395 kts 19°
2026-05-08 16:35 5.35179 -75.63710 22978 ft 395 kts 20°
2026-05-08 16:35 5.37775 -75.62805 22977 ft 395 kts 19°
2026-05-08 16:36 5.40372 -75.61899 22978 ft 395 kts 20°
2026-05-08 16:36 5.42966 -75.60994 22978 ft 395 kts 20°
2026-05-08 16:36 5.45567 -75.60091 22979 ft 395 kts 19°
2026-05-08 16:36 5.48157 -75.59196 22962 ft 395 kts 19°
2026-05-08 16:37 5.50758 -75.58296 22962 ft 394 kts 19°
2026-05-08 16:37 5.53348 -75.57398 22958 ft 394 kts 19°
2026-05-08 16:37 5.55940 -75.56499 22959 ft 394 kts 19°
2026-05-08 16:37 5.58539 -75.55596 22958 ft 394 kts 19°
2026-05-08 16:38 5.61123 -75.54696 22941 ft 394 kts 19°
2026-05-08 16:38 5.63717 -75.53791 22941 ft 393 kts 20°
2026-05-08 16:38 5.66306 -75.52886 22940 ft 394 kts 19°
2026-05-08 16:38 5.68896 -75.51981 22940 ft 393 kts 20°
2026-05-08 16:39 5.71483 -75.51081 22939 ft 393 kts 19°
2026-05-08 16:39 5.73915 -75.50235 22938 ft 393 kts 19°
2026-05-08 16:39 5.76507 -75.49335 22948 ft 393 kts 20°
2026-05-08 16:39 5.79092 -75.48436 22948 ft 393 kts 19°
2026-05-08 16:40 5.81676 -75.47537 22957 ft 393 kts 19°
2026-05-08 16:40 5.84264 -75.46636 22991 ft 393 kts 19°
2026-05-08 16:40 5.86849 -75.45737 23023 ft 393 kts 20°
2026-05-08 16:40 5.89440 -75.44836 23055 ft 393 kts 19°
2026-05-08 16:41 5.91989 -75.43950 23098 ft 393 kts 20°
2026-05-08 16:41 5.94580 -75.43049 23132 ft 393 kts 19°
2026-05-08 16:41 5.97164 -75.42147 23165 ft 393 kts 20°
2026-05-08 16:42 6.02127 -75.39870 23221 ft 392 kts 26°
2026-05-08 16:42 6.04585 -75.38681 23248 ft 392 kts 26°
2026-05-08 16:42 6.07039 -75.37498 23270 ft 392 kts 26°
2026-05-08 16:42 6.09499 -75.36311 23287 ft 392 kts 26°
2026-05-08 16:43 6.11957 -75.35125 23289 ft 392 kts 26°
2026-05-08 16:43 6.14411 -75.33940 23288 ft 392 kts 26°
2026-05-08 16:43 6.16893 -75.32806 23282 ft 392 kts 21°
2026-05-08 16:43 6.19340 -75.32125 23269 ft 392 kts 10°
2026-05-08 16:44 6.22084 -75.31669 23250 ft 392 kts
2026-05-08 16:44 6.24789 -75.31254 23227 ft 392 kts
2026-05-08 16:44 6.27493 -75.30854 23204 ft 393 kts
2026-05-08 16:44 6.29283 -75.30590 23186 ft 392 kts
2026-05-08 16:45 6.31978 -75.30192 23158 ft 392 kts
2026-05-08 16:45 6.34683 -75.29790 22944 ft 392 kts
2026-05-08 16:45 6.37387 -75.29385 22946 ft 392 kts
2026-05-08 16:45 6.40078 -75.28977 22947 ft 392 kts
2026-05-08 16:46 6.42775 -75.28563 22948 ft 392 kts 10°
2026-05-08 16:46 6.45468 -75.28149 22948 ft 392 kts 10°
2026-05-08 16:46 6.48178 -75.27732 22946 ft 392 kts
2026-05-08 16:46 6.50870 -75.27319 22947 ft 392 kts
2026-05-08 16:47 6.53566 -75.26910 22948 ft 392 kts
2026-05-08 16:47 6.56265 -75.26502 22947 ft 392 kts
2026-05-08 16:47 6.58959 -75.26093 22947 ft 392 kts
2026-05-08 16:47 6.61651 -75.25682 22948 ft 392 kts
2026-05-08 16:48 6.64352 -75.25267 22947 ft 392 kts
2026-05-08 16:48 6.67048 -75.24853 22947 ft 391 kts
2026-05-08 16:48 6.69737 -75.24440 22948 ft 391 kts
2026-05-08 16:48 6.72434 -75.24029 22947 ft 391 kts
2026-05-08 16:49 6.75118 -75.23622 22946 ft 391 kts
2026-05-08 16:49 6.77811 -75.23212 22935 ft 391 kts
2026-05-08 16:49 6.80462 -75.22805 22935 ft 391 kts
2026-05-08 16:49 6.83154 -75.22391 22934 ft 391 kts
2026-05-08 16:50 6.85836 -75.21979 22931 ft 391 kts
2026-05-08 16:50 6.88555 -75.21563 22929 ft 390 kts
2026-05-08 16:50 6.91241 -75.21152 22909 ft 390 kts
2026-05-08 16:50 6.93884 -75.20749 22890 ft 390 kts
2026-05-08 16:51 6.96579 -75.20338 22888 ft 390 kts
2026-05-08 16:51 6.99265 -75.19930 22889 ft 390 kts
2026-05-08 16:51 7.01952 -75.19519 22890 ft 390 kts
2026-05-08 16:51 7.04635 -75.19111 22890 ft 390 kts
2026-05-08 16:52 7.07322 -75.18705 22871 ft 390 kts
2026-05-08 16:52 7.10008 -75.18302 22870 ft 390 kts
2026-05-08 16:52 7.12696 -75.17898 22870 ft 390 kts
2026-05-08 16:52 7.15378 -75.17496 22871 ft 390 kts
2026-05-08 16:53 7.20746 -75.16683 22869 ft 390 kts
2026-05-08 16:53 7.23428 -75.16276 22867 ft 390 kts
2026-05-08 16:53 7.26107 -75.15868 22865 ft 390 kts
2026-05-08 16:54 7.28790 -75.15460 22866 ft 390 kts
2026-05-08 16:54 7.31478 -75.15051 22865 ft 390 kts
2026-05-08 16:54 7.34157 -75.14644 22855 ft 389 kts
2026-05-08 16:54 7.36833 -75.14239 22848 ft 389 kts
2026-05-08 16:55 7.39521 -75.13832 22847 ft 389 kts
2026-05-08 16:55 7.42195 -75.13427 22845 ft 389 kts
2026-05-08 16:55 7.44882 -75.13021 22844 ft 389 kts
2026-05-08 16:55 7.47564 -75.12616 22841 ft 389 kts
2026-05-08 16:56 7.50239 -75.12212 22823 ft 389 kts
2026-05-08 16:56 7.52921 -75.11805 22822 ft 389 kts 10°
2026-05-08 16:56 7.55595 -75.11400 22820 ft 389 kts
2026-05-08 16:56 7.58274 -75.10995 22820 ft 389 kts 10°
2026-05-08 16:57 7.60966 -75.10586 22820 ft 389 kts 10°
2026-05-08 16:57 7.63640 -75.10178 22809 ft 389 kts 10°
2026-05-08 16:57 7.66319 -75.09768 22808 ft 389 kts 10°
2026-05-08 16:57 7.69000 -75.09360 22808 ft 389 kts 10°
2026-05-08 16:58 7.71681 -75.08954 22808 ft 389 kts 10°
2026-05-08 16:58 7.74366 -75.08545 22812 ft 389 kts 10°
2026-05-08 16:58 7.77038 -75.08132 22811 ft 389 kts 10°
2026-05-08 16:58 7.79725 -75.07715 22806 ft 389 kts 10°
2026-05-08 16:59 7.82397 -75.07303 22808 ft 389 kts 10°
2026-05-08 16:59 7.85072 -75.06890 22807 ft 389 kts 10°
2026-05-08 16:59 7.87754 -75.06477 22811 ft 389 kts 10°
2026-05-08 16:59 7.90395 -75.06072 22808 ft 389 kts 10°
2026-05-08 17:00 7.93075 -75.05663 22808 ft 389 kts 10°
2026-05-08 17:00 7.95765 -75.05251 22804 ft 389 kts 10°
2026-05-08 17:00 7.98434 -75.04838 22807 ft 389 kts 10°
2026-05-08 17:00 8.01112 -75.04423 22808 ft 389 kts 10°
2026-05-08 17:01 8.03795 -75.04008 22811 ft 390 kts 10°
2026-05-08 17:01 8.06476 -75.03594 22801 ft 390 kts 10°
2026-05-08 17:01 8.09149 -75.03183 22806 ft 389 kts 10°
2026-05-08 17:01 8.11829 -75.02771 22811 ft 389 kts 10°
2026-05-08 17:02 8.14509 -75.02359 22811 ft 389 kts 11°
2026-05-08 17:02 8.17183 -75.01948 22811 ft 388 kts 11°
2026-05-08 17:02 8.19854 -75.01536 22810 ft 388 kts 11°
2026-05-08 17:02 8.22558 -75.01116 22810 ft 388 kts 11°
2026-05-08 17:03 8.25186 -75.00707 22810 ft 388 kts 11°
2026-05-08 17:03 8.27853 -75.00294 22808 ft 388 kts 11°
2026-05-08 17:03 8.30522 -74.99882 22805 ft 388 kts 11°
2026-05-08 17:03 8.33192 -74.99471 22804 ft 388 kts 10°
2026-05-08 17:04 8.35863 -74.99061 22794 ft 388 kts 10°
2026-05-08 17:04 8.38522 -74.98651 22793 ft 388 kts 11°
2026-05-08 17:04 8.41190 -74.98239 22795 ft 388 kts 11°
2026-05-08 17:04 8.43855 -74.97827 22794 ft 387 kts 11°
2026-05-08 17:05 8.46523 -74.97417 22802 ft 387 kts 11°
2026-05-08 17:05 8.49182 -74.97006 22806 ft 386 kts 11°
2026-05-08 17:05 8.51836 -74.96596 22802 ft 386 kts 11°
2026-05-08 17:05 8.54494 -74.96187 22802 ft 386 kts 11°
2026-05-08 17:06 8.57150 -74.95779 22805 ft 386 kts 11°
2026-05-08 17:06 8.59802 -74.95368 22804 ft 386 kts 11°
2026-05-08 17:06 8.62458 -74.94953 22803 ft 386 kts 11°
2026-05-08 17:06 8.64207 -74.94680 22802 ft 385 kts 11°
2026-05-08 17:07 8.67756 -74.94132 22802 ft 385 kts 11°
2026-05-08 17:07 8.70414 -74.93725 22801 ft 385 kts 11°
2026-05-08 17:07 8.73065 -74.93320 22800 ft 385 kts 11°
2026-05-08 17:07 8.75723 -74.92912 22799 ft 385 kts 11°
2026-05-08 17:08 8.78368 -74.92503 22794 ft 385 kts 11°
2026-05-08 17:08 8.81010 -74.92092 22798 ft 385 kts 12°
2026-05-08 17:08 8.83664 -74.91678 22801 ft 384 kts 12°
2026-05-08 17:08 8.86306 -74.91266 22802 ft 384 kts 12°
2026-05-08 17:09 8.88945 -74.90858 22805 ft 384 kts 11°
2026-05-08 17:09 8.91588 -74.90451 22804 ft 384 kts 11°
2026-05-08 17:09 8.94223 -74.90043 22800 ft 384 kts 12°
2026-05-08 17:09 8.96867 -74.89632 22800 ft 384 kts 12°
2026-05-08 17:10 8.99500 -74.89221 22799 ft 384 kts 12°
2026-05-08 17:10 9.02139 -74.88813 22798 ft 383 kts 11°
2026-05-08 17:10 9.04778 -74.88406 22798 ft 383 kts 11°
2026-05-08 17:10 9.07414 -74.88001 22798 ft 383 kts 11°
2026-05-08 17:11 9.10058 -74.87593 22797 ft 383 kts 12°
2026-05-08 17:11 9.12660 -74.87191 22796 ft 383 kts 11°
2026-05-08 17:11 9.15327 -74.86779 22797 ft 383 kts 12°
2026-05-08 17:11 9.17933 -74.86372 22799 ft 383 kts 12°
2026-05-08 17:12 9.20568 -74.85958 22801 ft 383 kts 12°
2026-05-08 17:12 9.23202 -74.85547 22802 ft 383 kts 12°
2026-05-08 17:12 9.25830 -74.85140 22802 ft 382 kts 12°
2026-05-08 17:12 9.28450 -74.84695 22800 ft 381 kts 16°
2026-05-08 17:13 9.30961 -74.83890 22800 ft 378 kts 22°
2026-05-08 17:13 9.33432 -74.82988 22799 ft 378 kts 22°
2026-05-08 17:13 9.35920 -74.82082 22798 ft 378 kts 22°
2026-05-08 17:13 9.38394 -74.81183 22797 ft 378 kts 22°
2026-05-08 17:14 9.40875 -74.80283 22796 ft 378 kts 22°
2026-05-08 17:14 9.43353 -74.79383 22796 ft 378 kts 22°
2026-05-08 17:14 9.45830 -74.78483 22796 ft 378 kts 22°
2026-05-08 17:14 9.48305 -74.77585 22793 ft 378 kts 22°
2026-05-08 17:15 9.50778 -74.76688 22791 ft 378 kts 22°
2026-05-08 17:15 9.53257 -74.75788 22793 ft 378 kts 22°
2026-05-08 17:15 9.55731 -74.74889 22794 ft 377 kts 22°
2026-05-08 17:15 9.58205 -74.73988 22795 ft 377 kts 22°
2026-05-08 17:16 9.60681 -74.73085 22798 ft 377 kts 22°
2026-05-08 17:16 9.63150 -74.72187 22798 ft 377 kts 22°
2026-05-08 17:16 9.65614 -74.71294 22796 ft 377 kts 22°
2026-05-08 17:16 9.68085 -74.70396 22796 ft 377 kts 22°
2026-05-08 17:17 9.70553 -74.69499 22789 ft 376 kts 22°
2026-05-08 17:17 9.73016 -74.68602 22789 ft 376 kts 22°
2026-05-08 17:17 9.75481 -74.67702 22788 ft 376 kts 22°
2026-05-08 17:17 9.77952 -74.66800 22788 ft 377 kts 22°
2026-05-08 17:18 9.80416 -74.65904 22789 ft 376 kts 22°
2026-05-08 17:18 9.82884 -74.65007 22788 ft 376 kts 22°
2026-05-08 17:18 9.85343 -74.64113 22786 ft 376 kts 22°
2026-05-08 17:18 9.87784 -74.63224 22788 ft 376 kts 22°
2026-05-08 17:19 9.90236 -74.62330 22789 ft 376 kts 22°
2026-05-08 17:19 9.92705 -74.61429 22787 ft 375 kts 22°
2026-05-08 17:19 9.95158 -74.60536 22786 ft 375 kts 22°
2026-05-08 17:19 9.97618 -74.59641 22786 ft 375 kts 22°
2026-05-08 17:20 10.00067 -74.58749 22785 ft 375 kts 22°
2026-05-08 17:20 10.02524 -74.57852 22785 ft 375 kts 22°
2026-05-08 17:20 10.04974 -74.56956 22783 ft 375 kts 22°
2026-05-08 17:20 10.07425 -74.56061 22778 ft 376 kts 22°
2026-05-08 17:21 10.09930 -74.55147 22310 ft 390 kts 22°
2026-05-08 17:21 10.12477 -74.54220 21883 ft 384 kts 22°
2026-05-08 17:21 10.14982 -74.53309 21369 ft 381 kts 22°
2026-05-08 17:21 10.17301 -74.52411 20823 ft 379 kts 24°
2026-05-08 17:22 10.19732 -74.51371 20324 ft 377 kts 25°
2026-05-08 17:22 10.22122 -74.50292 19838 ft 374 kts 26°
2026-05-08 17:22 10.24501 -74.49199 19275 ft 375 kts 26°
2026-05-08 17:22 10.26859 -74.48115 18792 ft 373 kts 25°
2026-05-08 17:23 10.29231 -74.47040 18360 ft 371 kts 25°
2026-05-08 17:23 10.31597 -74.45979 17864 ft 370 kts 25°
2026-05-08 17:23 10.33937 -74.44939 17338 ft 368 kts 25°
2026-05-08 17:23 10.36264 -74.43907 17010 ft 361 kts 25°
2026-05-08 17:24 10.37786 -74.43233 16707 ft 360 kts 25°
2026-05-08 17:24 10.40847 -74.41878 16094 ft 356 kts 25°
2026-05-08 17:24 10.43109 -74.40876 15660 ft 353 kts 25°
2026-05-08 17:24 10.44599 -74.40218 15392 ft 351 kts 25°
2026-05-08 17:25 10.46855 -74.39220 14967 ft 348 kts 25°
2026-05-08 17:25 10.49092 -74.38229 14616 ft 374 kts 25°
2026-05-08 17:25 10.51598 -74.37116 14273 ft 403 kts 25°
2026-05-08 17:25 10.54152 -74.35988 13967 ft 391 kts 25°
2026-05-08 17:26 10.56545 -74.34931 13796 ft 360 kts 25°
2026-05-08 17:26 10.58778 -74.33941 13415 ft 341 kts 25°
2026-05-08 17:26 10.60869 -74.33012 13213 ft 318 kts 25°
2026-05-08 17:26 10.62859 -74.32124 12723 ft 309 kts 25°
2026-05-08 17:27 10.64803 -74.31255 12080 ft 305 kts 25°
2026-05-08 17:27 10.66768 -74.30376 11410 ft 302 kts 25°
2026-05-08 17:27 10.68630 -74.29549 11234 ft 280 kts 25°
2026-05-08 17:27 10.70354 -74.28785 10811 ft 272 kts 25°
2026-05-08 17:28 10.72082 -74.28017 10281 ft 270 kts 25°
2026-05-08 17:28 10.73798 -74.27252 9750 ft 268 kts 25°
2026-05-08 17:28 10.75493 -74.26494 9168 ft 266 kts 25°
2026-05-08 17:28 10.77188 -74.25738 8604 ft 264 kts 24°
2026-05-08 17:29 10.78867 -74.24991 8054 ft 262 kts 24°
2026-05-08 17:29 10.80554 -74.24242 7562 ft 258 kts 24°
2026-05-08 17:29 10.82180 -74.23519 7156 ft 252 kts 24°
2026-05-08 17:29 10.83776 -74.22820 6768 ft 246 kts 20°
2026-05-08 17:30 10.85399 -74.22498 6556 ft 228 kts
2026-05-08 17:30 10.86952 -74.22516 6121 ft 219 kts 359°
2026-05-08 17:30 10.88198 -74.22542 5852 ft 209 kts 359°
2026-05-08 17:30 10.89605 -74.22574 5518 ft 201 kts 359°
2026-05-08 17:31 10.90972 -74.22603 5212 ft 192 kts 359°
2026-05-08 17:31 10.92120 -74.22629 4934 ft 189 kts 359°
2026-05-08 17:31 10.93423 -74.22658 4626 ft 187 kts 359°
2026-05-08 17:31 10.94727 -74.22687 4289 ft 185 kts 358°
2026-05-08 17:32 10.96011 -74.22717 3974 ft 183 kts 359°
2026-05-08 17:32 10.97282 -74.22744 3657 ft 182 kts 358°
2026-05-08 17:32 10.98542 -74.22770 3355 ft 181 kts 358°
2026-05-08 17:32 10.99809 -74.22797 3042 ft 181 kts 358°
2026-05-08 17:33 11.01075 -74.22826 2712 ft 183 kts 358°
2026-05-08 17:33 11.02348 -74.22855 2390 ft 182 kts 358°
2026-05-08 17:33 11.03606 -74.22882 2063 ft 180 kts 358°
2026-05-08 17:33 11.04850 -74.22906 1747 ft 181 kts 357°
2026-05-08 17:34 11.06032 -74.22929 1453 ft 170 kts 356°
2026-05-08 17:34 11.07028 -74.22948 1177 ft 159 kts 357°
2026-05-08 17:34 11.08113 -74.22970 893 ft 152 kts 357°
2026-05-08 17:34 11.09142 -74.22992 623 ft 145 kts 354°
2026-05-08 17:35 11.10133 -74.23015 343 ft 141 kts 356°
2026-05-08 17:35 11.11054 -74.23045 63 ft 138 kts 355°
2026-05-08 17:35 11.11849 -74.23062 28 ft 98 kts 359°
2026-05-08 17:35 11.12227 -74.23070 30 ft 24 kts 359°
2026-05-08 17:36 11.12386 -74.23072 31 ft 24 kts 359°
2026-05-08 17:36 11.12558 -74.23076 30 ft 26 kts 359°
2026-05-08 17:36 11.12715 -74.23103 30 ft 11 kts
2026-05-08 17:36 11.12716 -74.23083 30 ft 8 kts 160°
2026-05-08 17:37 11.12562 -74.23064 30 ft 52 kts 176°
2026-05-08 17:37 11.12190 -74.23086 29 ft 51 kts 192°
2026-05-08 17:37 11.11911 -74.23156 27 ft 49 kts 192°
2026-05-08 17:37 11.11812 -74.23156 27 ft 14 kts 159°
2026-05-08 17:38 11.11779 -74.23170 27 ft 6 kts 268°
2026-05-08 17:38 11.11778 -74.23209 26 ft 5 kts 265°